STARLINK-3974 (52634 NORAD) Tracking and Keplerian Element Data

This shows tracking and keplerian element data for the satellite.

Feedback or suggestion? Click here.




ElementValue
Catalog52634
NameSTARLINK-3974
Epoch Orbit130
Epoch Day167.08334491
Epoch Year2022
RAAN280.0041
Inclination53.2139
Eccentricity0.0001574
Argument of Perigee27.8625
Mean Anonmoly8.1491
Mean Motion15.73237533
Decay Rate0.00063754
L11 52634U 22052AN 22167.08334491 .00063754 00000+0 45449-3 0 9994
L22 52634 53.2139 280.0041 0001574 27.8625 8.1491 15.73237533 1303

Live tracking and technical data element details for STARLINK-3974 (NORAD 52634). STARLINK-3974 can be tracked NOW for your location showing map with azimuth and elevation plus other details from your city location.

Track the satellite on the map from your city or location and see movement details for azimuth, elevation, latitude, longitude, range, height, and movement on the map or in text.







IsCatalogInMostPopularTable: catalog: 52634, numindb: 1
Update: records affected: 1



GetName: 52634 STARLINK-3974

Hit Count: updated at: Mon, 27 Jun 2022 05:07:42 GMT